Owatonna, MN

8:15 AM CST on February 25, 2017 (GMT -0600)
Owatonna Degner Regional

Weather History for KOWA - November, 2012

Change the Weather History Date:

Tuesday, November 27, 2012

  Actual Average Record
Temperature  
Mean Temperature 27 °F -  
Max Temperature 39 °F 33 °F 68 °F (1998)
Min Temperature 15 °F 18 °F -16 °F (2014)
Degree Days  
Heating Degree Days 38    
Moisture  
Dew Point 11 °F    
Average Humidity 54    
Maximum Humidity 74    
Minimum Humidity 33    
Precipitation  
Precipitation 0.00 in - - ()
Sea Level Pressure  
Sea Level Pressure 30.20 in    
Wind  
Wind Speed 10 mph (SSW)    
Max Wind Speed 22 mph    
Max Gust Speed 29 mph    
Visibility 10 miles    
Events      
Averages and records for this station are not official NWS values.
T = Trace of Precipitation, MM = Missing Value Source: NWS Daily Summary

Daily Weather History Graph

Daily Weather History Graph

Search for Another Location

Airport or City:

Trip Planner

Search our weather history database for the weather conditions in past years. The results will help you decide how hot, cold, wet, or windy it might be!

Date:

Astronomy

Nov. 27, 2012 Rise Set
Actual Time 7:24 AM CST 4:37 PM CST
Civil Twilight 6:51 AM CST 5:09 PM CST
Nautical Twilight 6:16 AM CST 5:45 PM CST
Astronomical Twilight 5:41 AM CST 6:20 PM CST
Moon 4:09 PM CST (11/27) 6:28 AM CST (11/27)
Length of Visible Light 10h 17m
Length of Day
9h 13m
Waxing Gibbous, 99% of the Moon is Illuminated
Nov 27
Waxing Gibbous
Nov 28
Full
Dec 6
Last Quarter
Dec 13
New
Dec 19
First Quarter

Hourly Weather History & Observations

Time (CST) Temp. Windchill Dew Point Humidity Pressure Visibility Wind Dir Wind Speed Gust Speed Precip Events Conditions
12:13 AM 15.8 °F 6.1 °F 3.2 °F 58% 30.34 in 10.0 mi South 6.9 mph - N/A   Clear
12:33 AM 15.8 °F 6.1 °F 3.2 °F 58% 30.33 in 10.0 mi South 6.9 mph - N/A   Clear
12:53 AM 15.8 °F 5.1 °F 3.2 °F 58% 30.32 in 10.0 mi South 8.1 mph - N/A   Clear
1:13 AM 15.8 °F 4.2 °F 3.2 °F 58% 30.31 in 10.0 mi South 9.2 mph - N/A   Clear
1:53 AM 15.8 °F 4.2 °F 3.2 °F 58% 30.32 in 10.0 mi South 9.2 mph - N/A   Clear
2:13 AM 15.8 °F 4.2 °F 3.2 °F 58% 30.32 in 10.0 mi South 9.2 mph - N/A   Clear
2:35 AM 15.8 °F 4.2 °F 3.2 °F 58% 30.31 in 10.0 mi South 9.2 mph - N/A   Clear
2:54 AM 15.8 °F 4.2 °F 3.2 °F 58% 30.31 in 10.0 mi South 9.2 mph - N/A   Clear
3:13 AM 17.6 °F 6.4 °F 5.0 °F 58% 30.30 in 10.0 mi SSW 9.2 mph - N/A   Clear
3:33 AM 17.6 °F 6.4 °F 6.8 °F 63% 30.29 in 10.0 mi SSW 9.2 mph - N/A   Clear
3:54 AM 17.6 °F 6.4 °F 6.8 °F 63% 30.28 in 10.0 mi SSW 9.2 mph - N/A   Clear
4:14 AM 17.6 °F 7.3 °F 6.8 °F 63% 30.27 in 10.0 mi South 8.1 mph - N/A   Clear
4:34 AM 19.4 °F 8.6 °F 6.8 °F 58% 30.27 in 10.0 mi South 9.2 mph - N/A   Clear
4:53 AM 19.4 °F 7.9 °F 6.8 °F 58% 30.28 in 10.0 mi SSW 10.4 mph - N/A   Clear
5:13 AM 19.4 °F 7.2 °F 6.8 °F 58% 30.27 in 10.0 mi SSW 11.5 mph - N/A   Clear
5:34 AM 19.4 °F 7.9 °F 6.8 °F 58% 30.27 in 10.0 mi SSW 10.4 mph - N/A   Clear
5:54 AM 19.4 °F 7.9 °F 6.8 °F 58% 30.26 in 10.0 mi SSW 10.4 mph - N/A   Clear
6:33 AM 19.4 °F 8.6 °F 6.8 °F 58% 30.25 in 10.0 mi SSW 9.2 mph - N/A   Clear
6:53 AM 19.4 °F 7.2 °F 6.8 °F 58% 30.25 in 10.0 mi SSW 11.5 mph - N/A   Clear
7:13 AM 19.4 °F 7.9 °F 6.8 °F 58% 30.24 in 10.0 mi SSW 10.4 mph - N/A   Clear
7:34 AM 19.4 °F 7.2 °F 6.8 °F 58% 30.24 in 10.0 mi South 11.5 mph - N/A   Clear
7:54 AM 19.4 °F 7.2 °F 6.8 °F 58% 30.24 in 10.0 mi South 11.5 mph - N/A   Clear
8:14 AM 21.2 °F 8.9 °F 8.6 °F 58% 30.23 in 10.0 mi South 12.7 mph - N/A   Clear
8:33 AM 21.2 °F 10.1 °F 8.6 °F 58% 30.22 in 10.0 mi South 10.4 mph - N/A   Clear
8:53 AM 21.2 °F 9.5 °F 8.6 °F 58% 30.21 in 10.0 mi South 11.5 mph - N/A   Clear
9:33 AM 26.6 °F 15.2 °F 10.4 °F 51% 30.20 in 10.0 mi South 13.8 mph - N/A   Clear
9:53 AM 26.6 °F 15.7 °F 10.4 °F 51% 30.20 in 10.0 mi South 12.7 mph - N/A   Clear
10:14 AM 30.2 °F 20.2 °F 10.4 °F 44% 30.20 in 10.0 mi South 12.7 mph - N/A   Clear
10:34 AM 33.8 °F 23.9 °F 10.4 °F 38% 30.20 in 10.0 mi South 15.0 mph 19.6 mph N/A   Scattered Clouds
10:53 AM 33.8 °F 22.8 °F 10.4 °F 38% 30.19 in 10.0 mi South 18.4 mph - N/A   Overcast
11:14 AM 35.6 °F 25.5 °F 10.4 °F 35% 30.18 in 10.0 mi South 17.3 mph 23.0 mph N/A   Overcast
11:33 AM 37.4 °F 28.5 °F 10.4 °F 33% 30.17 in 10.0 mi SSW 15.0 mph 23.0 mph N/A   Mostly Cloudy
11:53 AM 39.2 °F 30.5 °F 12.2 °F 33% 30.15 in 10.0 mi SSW 16.1 mph 21.9 mph N/A   Scattered Clouds
12:14 PM 39.2 °F 30.2 °F 12.2 °F 33% 30.14 in 10.0 mi SSW 17.3 mph - N/A   Scattered Clouds
12:33 PM 39.2 °F 29.6 °F 14.0 °F 36% 30.14 in 10.0 mi SSW 19.6 mph 26.5 mph N/A   Clear
12:53 PM 39.2 °F 29.6 °F 14.0 °F 36% 30.13 in 10.0 mi SSW 19.6 mph 24.2 mph N/A   Clear
1:13 PM 39.2 °F 29.0 °F 15.8 °F 39% 30.13 in 10.0 mi SSW 21.9 mph 28.8 mph N/A   Clear
1:33 PM 39.2 °F 29.3 °F 15.8 °F 39% 30.11 in 10.0 mi SSW 20.7 mph 24.2 mph N/A   Scattered Clouds
1:53 PM 39.2 °F 30.5 °F 15.8 °F 39% 30.11 in 10.0 mi SSW 16.1 mph - N/A   Mostly Cloudy
2:14 PM 39.2 °F 30.5 °F 15.8 °F 39% 30.10 in 10.0 mi SSW 16.1 mph - N/A   Overcast
2:34 PM 37.4 °F 28.2 °F 17.6 °F 45% 30.11 in 10.0 mi SW 16.1 mph - N/A   Overcast
2:53 PM 37.4 °F 28.5 °F 15.8 °F 41% 30.09 in 10.0 mi South 15.0 mph - N/A   Overcast
3:13 PM 37.4 °F 27.5 °F 15.8 °F 41% 30.09 in 10.0 mi South 18.4 mph - N/A   Scattered Clouds
3:33 PM 37.4 °F 28.9 °F 15.8 °F 41% 30.10 in 10.0 mi SSW 13.8 mph - N/A   Clear
3:53 PM 37.4 °F 29.3 °F 15.8 °F 41% 30.11 in 10.0 mi SSW 12.7 mph - N/A   Clear
4:14 PM 37.4 °F 29.8 °F 15.8 °F 41% 30.11 in 10.0 mi SSW 11.5 mph - N/A   Scattered Clouds
4:34 PM 37.4 °F 30.3 °F 15.8 °F 41% 30.11 in 10.0 mi South 10.4 mph - N/A   Mostly Cloudy
4:54 PM 35.6 °F 28.6 °F 15.8 °F 44% 30.11 in 10.0 mi South 9.2 mph - N/A   Scattered Clouds
5:14 PM 33.8 °F 27.0 °F 15.8 °F 48% 30.11 in 10.0 mi South 8.1 mph - N/A   Clear
5:54 PM 30.2 °F 22.6 °F 15.8 °F 55% 30.12 in 7.0 mi SSW 8.1 mph - N/A   Clear
6:14 PM 30.2 °F 22.6 °F 15.8 °F 55% 30.13 in 10.0 mi SSW 8.1 mph - N/A   Clear
6:54 PM 28.4 °F 22.2 °F 15.8 °F 59% 30.13 in 10.0 mi SSW 5.8 mph - N/A   Clear
7:14 PM 28.4 °F 20.4 °F 15.8 °F 59% 30.13 in 10.0 mi SSW 8.1 mph - N/A   Clear
7:33 PM 26.6 °F 19.1 °F 15.8 °F 64% 30.14 in 10.0 mi SW 6.9 mph - N/A   Clear
7:54 PM 26.6 °F 18.2 °F 15.8 °F 64% 30.15 in 10.0 mi SW 8.1 mph - N/A   Clear
8:14 PM 28.4 °F 21.2 °F 17.6 °F 64% 30.16 in 10.0 mi SW 6.9 mph - N/A   Clear
8:34 PM 26.6 °F 20.0 °F 15.8 °F 64% 30.15 in 10.0 mi WSW 5.8 mph - N/A   Clear
8:54 PM 24.8 °F 17.9 °F 15.8 °F 69% 30.16 in 10.0 mi WSW 5.8 mph - N/A   Clear
9:13 PM 24.8 °F 20.5 °F 15.8 °F 69% 30.17 in 10.0 mi West 3.5 mph - N/A   Clear
9:33 PM 24.8 °F 17.9 °F 15.8 °F 69% 30.17 in 10.0 mi WSW 5.8 mph - N/A   Clear
9:53 PM 23.0 °F 17.0 °F 15.8 °F 74% 30.18 in 10.0 mi West 4.6 mph - N/A   Clear
10:14 PM 23.0 °F 18.4 °F 15.8 °F 74% 30.19 in 10.0 mi West 3.5 mph - N/A   Clear
10:34 PM 23.0 °F 17.0 °F 15.8 °F 74% 30.19 in 10.0 mi West 4.6 mph - N/A   Clear
10:54 PM 23.0 °F 17.0 °F 15.8 °F 74% 30.20 in 10.0 mi West 4.6 mph - N/A   Clear
11:13 PM 21.2 °F 16.4 °F 14.0 °F 74% 30.21 in 10.0 mi West 3.5 mph - N/A   Clear
11:53 PM 24.8 °F 20.5 °F 17.6 °F 74% 30.22 in 10.0 mi WNW 3.5 mph - N/A   Clear